BEIDOU-3S M2S (C58)

Last updated on Mon Oct 20 2025 00:03:24 GMT+0000 (Coordinated Universal Time)

1 40748U 15037A 25292.23157450 -.00000063 00000+0 00000+0 0 9994 2 40748 55.0855 310.3350 0012909 259.2729 100.6202 1.86229302 69633
UTC large
Height (km)
Speed (km/s)
/
Latitude / Longitude
Inclination (degrees)
Orbital Period (minutes)
Azimuth
Elevation
Range (km)
Doppler Factor

Next 0 passes for location: London (51.5072 / 0.1276)

Sorry there are no passes over London.